N2ST KMIA-KPBI

Flight info

Callsign N2ST
Flight time 0h 26m
Altitude 13000
Route WILBA
Aircraft SF50/L-BDGRSWY/LB2U2

Departure

Time 2026-04-15 14:33
Airport Miami International Airport (KMIA)

Arrival

Time 2026-04-15 14:59
Airport Palm Beach International Airport (KPBI)
Time Latitude Longitude Altitude Speed Heading
2026-04-15 13:50 25.80576 -80.28751 9 ft 0 kts 176°
2026-04-15 14:25 25.80568 -80.28750 9 ft 2 kts 177°
2026-04-15 14:26 25.80549 -80.28731 9 ft 6 kts 91°
2026-04-15 14:26 25.80537 -80.28700 9 ft 5 kts 170°
2026-04-15 14:26 25.80497 -80.28698 9 ft 7 kts 180°
2026-04-15 14:26 25.80461 -80.28749 9 ft 11 kts 256°
2026-04-15 14:27 25.80456 -80.28822 9 ft 8 kts 264°
2026-04-15 14:27 25.80454 -80.28871 9 ft 5 kts 270°
2026-04-15 14:27 25.80452 -80.28909 8 ft 5 kts 266°
2026-04-15 14:27 25.80452 -80.28942 8 ft 4 kts 268°
2026-04-15 14:28 25.80450 -80.28978 8 ft 6 kts 264°
2026-04-15 14:28 25.80448 -80.29024 8 ft 6 kts 269°
2026-04-15 14:28 25.80445 -80.29078 9 ft 8 kts 272°
2026-04-15 14:28 25.80443 -80.29142 9 ft 9 kts 266°
2026-04-15 14:29 25.80439 -80.29213 9 ft 9 kts 268°
2026-04-15 14:29 25.80437 -80.29288 9 ft 10 kts 268°
2026-04-15 14:29 25.80431 -80.29366 9 ft 9 kts 250°
2026-04-15 14:29 25.80433 -80.29427 9 ft 9 kts 263°
2026-04-15 14:30 25.80425 -80.29492 9 ft 8 kts 238°
2026-04-15 14:30 25.80382 -80.29503 9 ft 6 kts 170°
2026-04-15 14:30 25.80343 -80.29498 9 ft 5 kts 180°
2026-04-15 14:30 25.80304 -80.29500 9 ft 6 kts 185°
2026-04-15 14:31 25.80259 -80.29505 9 ft 7 kts 184°
2026-04-15 14:31 25.80205 -80.29520 9 ft 9 kts 193°
2026-04-15 14:31 25.80139 -80.29521 8 ft 11 kts 178°
2026-04-15 14:31 25.80102 -80.29483 8 ft 4 kts 99°
2026-04-15 14:32 25.80100 -80.29434 8 ft 12 kts 90°
2026-04-15 14:32 25.80112 -80.29157 11 ft 65 kts 88°
2026-04-15 14:32 25.80129 -80.28505 130 ft 94 kts 89°
2026-04-15 14:32 25.80157 -80.27665 414 ft 116 kts 90°
2026-04-15 14:33 25.80241 -80.26734 824 ft 135 kts 81°
2026-04-15 14:33 25.80612 -80.25692 1158 ft 154 kts 59°
2026-04-15 14:33 25.81110 -80.24661 1773 ft 153 kts 72°
2026-04-15 14:33 25.81691 -80.23677 2348 ft 158 kts 38°
2026-04-15 14:34 25.82561 -80.22944 2927 ft 158 kts 45°
2026-04-15 14:34 25.83247 -80.21983 3428 ft 160 kts 53°
2026-04-15 14:34 25.84052 -80.21123 3936 ft 162 kts 47°
2026-04-15 14:34 25.84722 -80.20120 4434 ft 162 kts 58°
2026-04-15 14:35 25.85190 -80.18992 4961 ft 162 kts 69°
2026-04-15 14:35 25.85845 -80.17990 5439 ft 172 kts 30°
2026-04-15 14:35 25.87054 -80.17863 5927 ft 182 kts 354°
2026-04-15 14:35 25.88293 -80.18227 6376 ft 186 kts 348°
2026-04-15 14:36 25.89563 -80.18543 6796 ft 188 kts 353°
2026-04-15 14:36 25.90854 -80.18795 7222 ft 188 kts 353°
2026-04-15 14:36 25.92150 -80.19054 7632 ft 190 kts 354°
2026-04-15 14:36 25.93444 -80.19317 8044 ft 189 kts 353°
2026-04-15 14:37 25.94745 -80.19581 8442 ft 191 kts 353°
2026-04-15 14:37 25.96059 -80.19844 8841 ft 192 kts 352°
2026-04-15 14:37 25.97370 -80.20109 9240 ft 192 kts 353°
2026-04-15 14:37 25.98691 -80.20377 9636 ft 193 kts 353°
2026-04-15 14:38 26.00022 -80.20649 10020 ft 195 kts 353°
2026-04-15 14:38 26.01354 -80.20918 10386 ft 195 kts 353°
2026-04-15 14:38 26.02688 -80.21189 10734 ft 194 kts 353°
2026-04-15 14:38 26.04020 -80.21458 11081 ft 195 kts 352°
2026-04-15 14:39 26.05361 -80.21729 11422 ft 196 kts 352°
2026-04-15 14:39 26.06698 -80.22000 11774 ft 195 kts 353°
2026-04-15 14:39 26.08031 -80.22270 12130 ft 195 kts 351°
2026-04-15 14:39 26.09372 -80.22542 12438 ft 196 kts 351°
2026-04-15 14:40 26.10722 -80.22818 12753 ft 197 kts 352°
2026-04-15 14:40 26.12051 -80.23089 13093 ft 196 kts 353°
2026-04-15 14:40 26.13425 -80.23367 13198 ft 208 kts 352°
2026-04-15 14:40 26.14888 -80.23664 13207 ft 220 kts 351°
2026-04-15 14:41 26.16427 -80.23978 13212 ft 228 kts 351°
2026-04-15 14:41 26.18005 -80.24300 13211 ft 234 kts 351°
2026-04-15 14:41 26.19620 -80.24628 13211 ft 238 kts 351°
2026-04-15 14:41 26.21262 -80.24962 13210 ft 241 kts 351°
2026-04-15 14:42 26.22915 -80.25300 13209 ft 242 kts 351°
2026-04-15 14:42 26.24572 -80.25643 13207 ft 243 kts 350°
2026-04-15 14:42 26.26239 -80.25980 13208 ft 244 kts 351°
2026-04-15 14:42 26.27910 -80.26318 13209 ft 244 kts 351°
2026-04-15 14:43 26.29582 -80.26661 13208 ft 244 kts 350°
2026-04-15 14:43 26.31258 -80.27002 13208 ft 244 kts 350°
2026-04-15 14:43 26.32929 -80.27344 13223 ft 244 kts 350°
2026-04-15 14:43 26.34599 -80.27686 13219 ft 244 kts 350°
2026-04-15 14:44 26.36271 -80.28025 13216 ft 244 kts 350°
2026-04-15 14:44 26.37940 -80.28365 13216 ft 244 kts 351°
2026-04-15 14:44 26.39608 -80.28708 13214 ft 244 kts 350°
2026-04-15 14:44 26.41275 -80.29046 13213 ft 244 kts 351°
2026-04-15 14:45 26.42946 -80.29386 13217 ft 244 kts 350°
2026-04-15 14:45 26.44615 -80.29732 13214 ft 244 kts 350°
2026-04-15 14:45 26.46288 -80.30073 13213 ft 244 kts 350°
2026-04-15 14:45 26.47960 -80.30414 13211 ft 244 kts 351°
2026-04-15 14:46 26.49629 -80.30757 13210 ft 244 kts 350°
2026-04-15 14:46 26.51300 -80.31098 13218 ft 244 kts 351°
2026-04-15 14:46 26.52969 -80.31438 13219 ft 243 kts 351°
2026-04-15 14:46 26.54617 -80.31769 13224 ft 244 kts 349°
2026-04-15 14:47 26.56284 -80.32118 13222 ft 244 kts 350°
2026-04-15 14:47 26.57952 -80.32463 13222 ft 243 kts 350°
2026-04-15 14:47 26.59587 -80.32795 13014 ft 229 kts 349°
2026-04-15 14:47 26.61076 -80.33101 12685 ft 208 kts 351°
2026-04-15 14:48 26.62363 -80.33653 12357 ft 197 kts 320°
2026-04-15 14:48 26.63107 -80.34893 12032 ft 190 kts 297°
2026-04-15 14:48 26.63383 -80.36387 11378 ft 203 kts 277°
2026-04-15 14:48 26.63512 -80.37988 10729 ft 210 kts 276°
2026-04-15 14:49 26.63660 -80.39629 10090 ft 214 kts 276°
2026-04-15 14:49 26.63827 -80.41292 9389 ft 216 kts 276°
2026-04-15 14:49 26.63999 -80.42977 8696 ft 219 kts 276°
2026-04-15 14:49 26.64183 -80.44657 8021 ft 217 kts 277°
2026-04-15 14:50 26.64363 -80.46338 7358 ft 218 kts 276°
2026-04-15 14:50 26.64553 -80.48017 6706 ft 217 kts 281°
2026-04-15 14:50 26.65248 -80.49483 5982 ft 215 kts 319°
2026-04-15 14:50 26.66559 -80.50117 5268 ft 205 kts
2026-04-15 14:51 26.67857 -80.49638 4549 ft 196 kts 39°
2026-04-15 14:51 26.68632 -80.48440 3833 ft 191 kts 72°
2026-04-15 14:51 26.68773 -80.46977 3245 ft 185 kts 89°
2026-04-15 14:51 26.68808 -80.45618 3212 ft 173 kts 87°
2026-04-15 14:52 26.68868 -80.44161 3214 ft 195 kts 86°
2026-04-15 14:52 26.68956 -80.42538 3224 ft 223 kts 85°
2026-04-15 14:52 26.69056 -80.40755 3226 ft 236 kts 86°
2026-04-15 14:52 26.69156 -80.38897 3222 ft 244 kts 86°
2026-04-15 14:53 26.69282 -80.37000 3227 ft 245 kts 82°
2026-04-15 14:53 26.69752 -80.35282 3205 ft 211 kts 68°
2026-04-15 14:53 26.70181 -80.33839 2861 ft 181 kts 77°
2026-04-15 14:53 26.70329 -80.32511 2593 ft 163 kts 87°
2026-04-15 14:54 26.70414 -80.31352 2658 ft 141 kts 75°
2026-04-15 14:54 26.70496 -80.30250 2403 ft 149 kts 97°
2026-04-15 14:54 26.70251 -80.29160 2401 ft 138 kts 107°
2026-04-15 14:54 26.69890 -80.28118 2236 ft 145 kts 110°
2026-04-15 14:55 26.69484 -80.27109 2259 ft 142 kts 113°
2026-04-15 14:55 26.69072 -80.26096 2214 ft 143 kts 111°
2026-04-15 14:55 26.68786 -80.25031 2163 ft 142 kts 100°
2026-04-15 14:55 26.68628 -80.23932 2090 ft 145 kts 94°
2026-04-15 14:56 26.68601 -80.22801 1976 ft 147 kts 89°
2026-04-15 14:56 26.68645 -80.21676 1954 ft 144 kts 88°
2026-04-15 14:56 26.68587 -80.20600 1902 ft 128 kts 95°
2026-04-15 14:56 26.68495 -80.19622 1657 ft 124 kts 94°
2026-04-15 14:57 26.68450 -80.18695 1492 ft 118 kts 91°
2026-04-15 14:57 26.68465 -80.17748 1260 ft 125 kts 88°
2026-04-15 14:57 26.68457 -80.16778 1083 ft 124 kts 92°
2026-04-15 14:57 26.68386 -80.15833 948 ft 120 kts 94°
2026-04-15 14:58 26.68354 -80.15222 838 ft 112 kts 94°
2026-04-15 14:58 26.68314 -80.14401 684 ft 106 kts 92°
2026-04-15 14:58 26.68250 -80.13544 575 ft 116 kts 95°
2026-04-15 14:58 26.68187 -80.12636 392 ft 108 kts 94°
2026-04-15 14:59 26.68180 -80.11859 221 ft 94 kts 92°
2026-04-15 14:59 26.68139 -80.11096 129 ft 115 kts 92°
2026-04-15 14:59 26.68103 -80.10264 17 ft 88 kts 93°
2026-04-15 14:59 26.68085 -80.09793 16 ft 12 kts 95°
2026-04-15 15:00 26.68077 -80.09745 15 ft 4 kts 92°
2026-04-15 15:00 26.68078 -80.09719 15 ft 6 kts 89°
2026-04-15 15:00 26.68075 -80.09666 -3 ft 6 kts 126°
2026-04-15 15:00 26.68040 -80.09654 15 ft 5 kts 187°
2026-04-15 15:01 26.68006 -80.09653 15 ft 7 kts 140°
2026-04-15 15:01 26.67986 -80.09584 15 ft 12 kts 97°
2026-04-15 15:01 26.67962 -80.09516 15 ft 8 kts 122°
2026-04-15 15:01 26.67933 -80.09500 15 ft 2 kts 187°
2026-04-15 15:02 26.67931 -80.09500 15 ft 0 kts 179°